Darstellungsparameter: Aktuell verwendete Einstellungen:
Skalierung der Graphiken ... ?
xyx+y,   Skalierungsfaktor:      Skalierung: Modus: x, Faktor: 1
Darstellungszeitraum ... ?
Vom - - bis: - -   Zeitraum: 12.03.2021 - 12.03.2021
Min/Max/Avg-Anzeige ... ?
Zeige MMA aktuell
Zeige MMA Monat
Zeige MMA alles
Zeige --A aktuell
Zeige --A Monat
Zeige --A alles
Keine MMA-Anzeige
MMA:
Keine MMA-Graphiken
MMA-Basis: 12.03.2021 - 12.03.2021
Quicknavigation für Darstellung... ?
Tage:      1T, 2T, 3T, 5T -1T -2T -3T -5T +1T +2T +3T +5T
Wochen: 1W, 2W, 3W -1W -2W -3W +1W +2W +3W
Monate: 1M, 3M, 6M -1M -3M -6M +1M +3M +6M
Jahre:    1J, 3J, 5J, 10J -1J -3J -5J -10J +1J +3J +5J +10J
Nutze für die Darstellung ... ?
Originaldaten oder Mittelwerte auf ...
Stundenbasis Tagesbasis Wochenbasis
Monatsbasis Jahresbasis      Datenbasis: Original-Daten
Darstellen als:
Statistik (Auto) Statistik J:M      Darstellung:
Zur Graphik,    zurück zur Übersicht aller Sensoren.
 
Tabellarische Datenbersicht: ?
 
Sensor: Nr:Datum:Temp:Feuchte:Taupunkt:
Aussen-T/F 1 12-03-2021 00:00:00 5.2 C 91 % 3.85 C
2 12-03-2021 00:05:00 5.2 C 91 % 3.85 C
3 12-03-2021 00:10:00 5.2 C 91 % 3.85 C
4 12-03-2021 00:15:00 5.2 C 91 % 3.85 C
5 12-03-2021 00:20:00 5.3 C 91 % 3.95 C
6 12-03-2021 00:25:00 5.3 C 90 % 3.8 C
7 12-03-2021 00:30:00 5.2 C 90 % 3.7 C
8 12-03-2021 00:35:00 5.2 C 91 % 3.85 C
9 12-03-2021 00:40:00 5.1 C 91 % 3.76 C
10 12-03-2021 00:45:00 4.9 C 91 % 3.56 C
11 12-03-2021 00:50:00 4.9 C 91 % 3.56 C
12 12-03-2021 00:55:00 4.9 C 91 % 3.56 C
13 12-03-2021 01:00:00 5.1 C 92 % 3.91 C
14 12-03-2021 01:05:00 5.1 C 92 % 3.91 C
15 12-03-2021 01:10:00 5.1 C 92 % 3.91 C
16 12-03-2021 01:15:00 5.2 C 92 % 4.01 C
17 12-03-2021 01:20:00 5.2 C 91 % 3.85 C
18 12-03-2021 01:25:00 5.2 C 91 % 3.85 C
19 12-03-2021 01:30:00 5.3 C 91 % 3.95 C
20 12-03-2021 01:35:00 5.3 C 91 % 3.95 C
21 12-03-2021 01:40:00 5.4 C 91 % 4.05 C
22 12-03-2021 01:45:00 5.4 C 91 % 4.05 C
23 12-03-2021 01:50:00 5.4 C 90 % 3.89 C
24 12-03-2021 01:55:00 5.6 C 88 % 3.77 C
25 12-03-2021 02:00:00 5.8 C 86 % 3.64 C
Sensor: Nr:Datum:Temp:Feuchte:Taupunkt:
Aussen-T/F 26 12-03-2021 02:05:00 5.8 C 85 % 3.48 C
27 12-03-2021 02:10:00 6 C 83 % 3.34 C
28 12-03-2021 02:15:00 6.2 C 81 % 3.19 C
29 12-03-2021 02:20:00 6.3 C 80 % 3.11 C
30 12-03-2021 02:25:00 6.2 C 81 % 3.19 C
31 12-03-2021 02:30:00 6.1 C 81 % 3.09 C
32 12-03-2021 02:35:00 6 C 81 % 2.99 C
33 12-03-2021 02:40:00 5.9 C 82 % 3.07 C
34 12-03-2021 02:45:00 5.7 C 82 % 2.87 C
35 12-03-2021 02:50:00 5.6 C 82 % 2.78 C
36 12-03-2021 02:55:00 5.5 C 82 % 2.68 C
37 12-03-2021 03:00:00 5.4 C 83 % 2.75 C
38 12-03-2021 03:05:00 5.4 C 83 % 2.75 C
39 12-03-2021 03:10:00 5.4 C 83 % 2.75 C
40 12-03-2021 03:15:00 5.4 C 83 % 2.75 C
41 12-03-2021 03:20:00 5.4 C 83 % 2.75 C
42 12-03-2021 03:25:00 5.4 C 84 % 2.92 C
43 12-03-2021 03:30:00 5.4 C 84 % 2.92 C
44 12-03-2021 03:35:00 5.4 C 83 % 2.75 C
45 12-03-2021 03:40:00 5.4 C 83 % 2.75 C
46 12-03-2021 03:45:00 5.4 C 83 % 2.75 C
47 12-03-2021 03:50:00 5.4 C 83 % 2.75 C
48 12-03-2021 03:55:00 5.3 C 83 % 2.65 C
49 12-03-2021 04:00:00 5.2 C 84 % 2.72 C
50 12-03-2021 04:05:00 5.1 C 84 % 2.63 C
Sensor: Nr:Datum:Temp:Feuchte:Taupunkt:
Aussen-T/F 51 12-03-2021 04:10:00 5.1 C 84 % 2.63 C
52 12-03-2021 04:15:00 5 C 84 % 2.53 C
53 12-03-2021 04:20:00 4.9 C 84 % 2.43 C
54 12-03-2021 04:25:00 5.1 C 84 % 2.63 C
55 12-03-2021 04:30:00 5.3 C 83 % 2.65 C
56 12-03-2021 04:35:00 5.5 C 82 % 2.68 C
57 12-03-2021 04:40:00 5.7 C 81 % 2.7 C
58 12-03-2021 04:45:00 5.7 C 82 % 2.87 C
59 12-03-2021 04:50:00 5.7 C 82 % 2.87 C
60 12-03-2021 04:55:00 5.7 C 83 % 3.04 C
61 12-03-2021 05:00:00 5.7 C 83 % 3.04 C
62 12-03-2021 05:05:00 5.7 C 82 % 2.87 C
63 12-03-2021 05:10:00 5.7 C 83 % 3.04 C
64 12-03-2021 05:15:00 5.7 C 83 % 3.04 C
65 12-03-2021 05:20:00 5.7 C 83 % 3.04 C
66 12-03-2021 05:25:00 5.7 C 82 % 2.87 C
67 12-03-2021 05:30:00 5.7 C 82 % 2.87 C
68 12-03-2021 05:35:00 5.6 C 82 % 2.78 C
69 12-03-2021 05:40:00 5.6 C 83 % 2.95 C
70 12-03-2021 05:45:00 5.6 C 82 % 2.78 C
71 12-03-2021 05:50:00 5.6 C 82 % 2.78 C
72 12-03-2021 05:55:00 5.5 C 82 % 2.68 C
73 12-03-2021 06:00:00 5.4 C 83 % 2.75 C
74 12-03-2021 06:05:00 5.4 C 83 % 2.75 C
75 12-03-2021 06:10:00 5.4 C 83 % 2.75 C
Sensor: Nr:Datum:Temp:Feuchte:Taupunkt:
Aussen-T/F 76 12-03-2021 06:15:00 5.4 C 83 % 2.75 C
77 12-03-2021 06:20:00 5.4 C 83 % 2.75 C
78 12-03-2021 06:25:00 5.3 C 83 % 2.65 C
79 12-03-2021 06:30:00 5.3 C 84 % 2.82 C
80 12-03-2021 06:35:00 5.3 C 84 % 2.82 C
81 12-03-2021 06:40:00 5.3 C 84 % 2.82 C
82 12-03-2021 06:45:00 5.3 C 84 % 2.82 C
83 12-03-2021 06:50:00 5.3 C 84 % 2.82 C
84 12-03-2021 06:55:00 5.4 C 85 % 3.09 C
85 12-03-2021 07:00:00 5.4 C 85 % 3.09 C
86 12-03-2021 07:05:00 5.3 C 85 % 2.99 C
87 12-03-2021 07:10:00 5.3 C 85 % 2.99 C
88 12-03-2021 07:15:00 5.3 C 85 % 2.99 C
89 12-03-2021 07:20:00 5.3 C 85 % 2.99 C
90 12-03-2021 07:25:00 5.5 C 85 % 3.18 C
91 12-03-2021 07:30:00 5.6 C 85 % 3.28 C
92 12-03-2021 07:35:00 5.7 C 84 % 3.21 C
93 12-03-2021 07:40:00 5.7 C 84 % 3.21 C
94 12-03-2021 07:45:00 5.8 C 84 % 3.31 C
95 12-03-2021 07:50:00 5.9 C 83 % 3.24 C
96 12-03-2021 07:55:00 6 C 83 % 3.34 C
97 12-03-2021 08:00:00 6.1 C 83 % 3.44 C
98 12-03-2021 08:05:00 6.1 C 83 % 3.44 C
99 12-03-2021 08:10:00 6.2 C 82 % 3.36 C
100 12-03-2021 08:15:00 6.3 C 81 % 3.29 C
Sensor: Nr:Datum:Temp:Feuchte:Taupunkt:
Aussen-T/F 101 12-03-2021 08:20:00 6.3 C 81 % 3.29 C
102 12-03-2021 08:25:00 6.4 C 81 % 3.38 C
103 12-03-2021 08:30:00 6.5 C 80 % 3.31 C
104 12-03-2021 08:35:00 6.6 C 81 % 3.58 C
105 12-03-2021 08:40:00 6.6 C 81 % 3.58 C
106 12-03-2021 08:45:00 6.6 C 81 % 3.58 C
107 12-03-2021 08:50:00 6.6 C 82 % 3.75 C
108 12-03-2021 08:55:00 6.7 C 82 % 3.85 C
109 12-03-2021 09:00:00 6.7 C 82 % 3.85 C
110 12-03-2021 09:05:00 6.8 C 82 % 3.95 C
111 12-03-2021 09:10:00 6.9 C 82 % 4.05 C
112 12-03-2021 09:15:00 7.1 C 82 % 4.24 C
113 12-03-2021 09:20:00 7.2 C 81 % 4.16 C
114 12-03-2021 09:25:00 7.2 C 82 % 4.34 C
115 12-03-2021 09:30:00 7.1 C 82 % 4.24 C
116 12-03-2021 09:35:00 7 C 84 % 4.49 C
117 12-03-2021 09:40:00 7 C 85 % 4.66 C
118 12-03-2021 09:45:00 7.1 C 85 % 4.75 C
119 12-03-2021 09:50:00 7.2 C 85 % 4.85 C
120 12-03-2021 09:55:00 7.3 C 84 % 4.78 C
121 12-03-2021 10:00:00 7.4 C 82 % 4.53 C
122 12-03-2021 10:05:00 7.7 C 81 % 4.65 C
123 12-03-2021 10:10:00 7.8 C 80 % 4.57 C
124 12-03-2021 10:15:00 8.1 C 79 % 4.68 C
125 12-03-2021 10:20:00 8.2 C 78 % 4.6 C
Sensor: Nr:Datum:Temp:Feuchte:Taupunkt:
Aussen-T/F 126 12-03-2021 10:25:00 8.4 C 76 % 4.42 C
127 12-03-2021 10:30:00 8.4 C 76 % 4.42 C
128 12-03-2021 10:35:00 8.2 C 77 % 4.42 C
129 12-03-2021 10:40:00 8.1 C 78 % 4.5 C
130 12-03-2021 10:45:00 8.1 C 79 % 4.68 C
131 12-03-2021 10:50:00 8.1 C 78 % 4.5 C
132 12-03-2021 10:55:00 8 C 78 % 4.41 C
133 12-03-2021 11:00:00 8 C 77 % 4.22 C
134 12-03-2021 11:05:00 8.2 C 78 % 4.6 C
135 12-03-2021 11:10:00 8.3 C 75 % 4.14 C
136 12-03-2021 11:15:00 8.3 C 75 % 4.14 C
137 12-03-2021 11:20:00 8.3 C 74 % 3.95 C
138 12-03-2021 11:25:00 8.3 C 74 % 3.95 C
139 12-03-2021 11:30:00 8.4 C 74 % 4.04 C
140 12-03-2021 11:35:00 8.3 C 76 % 4.33 C
141 12-03-2021 11:40:00 8.2 C 77 % 4.42 C
142 12-03-2021 11:45:00 8.4 C 76 % 4.42 C
143 12-03-2021 11:50:00 8.5 C 77 % 4.71 C
144 12-03-2021 11:55:00 8.6 C 77 % 4.8 C
145 12-03-2021 12:00:00 8.8 C 75 % 4.62 C
146 12-03-2021 12:05:00 8.9 C 74 % 4.53 C
147 12-03-2021 12:10:00 8.8 C 75 % 4.62 C
148 12-03-2021 12:15:00 8.8 C 79 % 5.36 C
149 12-03-2021 12:20:00 8.8 C 75 % 4.62 C
150 12-03-2021 12:25:00 8.8 C 76 % 4.81 C
Sensor: Nr:Datum:Temp:Feuchte:Taupunkt:
Aussen-T/F 151 12-03-2021 12:30:00 8.9 C 76 % 4.91 C
152 12-03-2021 12:35:00 9.1 C 74 % 4.72 C
153 12-03-2021 12:40:00 9.1 C 72 % 4.33 C
154 12-03-2021 12:45:00 9.2 C 72 % 4.42 C
155 12-03-2021 12:50:00 9.3 C 72 % 4.52 C
156 12-03-2021 12:55:00 9.3 C 72 % 4.52 C
157 12-03-2021 13:00:00 9.3 C 69 % 3.91 C
158 12-03-2021 13:05:00 9.6 C 69 % 4.2 C
159 12-03-2021 13:10:00 9.8 C 68 % 4.18 C
160 12-03-2021 13:15:00 9.9 C 67 % 4.07 C
161 12-03-2021 13:20:00 9.9 C 67 % 4.07 C
162 12-03-2021 13:25:00 10 C 68 % 4.38 C
163 12-03-2021 13:30:00 10.1 C 67 % 4.26 C
164 12-03-2021 13:35:00 10.1 C 66 % 4.05 C
165 12-03-2021 13:40:00 10.3 C 67 % 4.45 C
166 12-03-2021 13:45:00 10.3 C 66 % 4.24 C
167 12-03-2021 13:50:00 10.2 C 66 % 4.14 C
168 12-03-2021 13:55:00 10.1 C 68 % 4.47 C
169 12-03-2021 14:00:00 9.8 C 68 % 4.18 C
170 12-03-2021 14:05:00 9.8 C 72 % 5 C
171 12-03-2021 14:10:00 10 C 70 % 4.79 C
172 12-03-2021 14:15:00 10.1 C 69 % 4.68 C
173 12-03-2021 14:20:00 10.2 C 68 % 4.57 C
174 12-03-2021 14:25:00 10.3 C 67 % 4.45 C
175 12-03-2021 14:30:00 10.4 C 67 % 4.55 C
Sensor: Nr:Datum:Temp:Feuchte:Taupunkt:
Aussen-T/F 176 12-03-2021 14:35:00 10.7 C 64 % 4.18 C
177 12-03-2021 14:40:00 10.8 C 62 % 3.82 C
178 12-03-2021 14:45:00 10.7 C 63 % 3.95 C
179 12-03-2021 14:50:00 10.8 C 63 % 4.05 C
180 12-03-2021 14:55:00 10.8 C 61 % 3.59 C
181 12-03-2021 15:00:00 10.7 C 61 % 3.5 C
182 12-03-2021 15:05:00 10.7 C 61 % 3.5 C
183 12-03-2021 15:10:00 10.7 C 61 % 3.5 C
184 12-03-2021 15:15:00 10.8 C 60 % 3.36 C
185 12-03-2021 15:20:00 10.8 C 61 % 3.59 C
186 12-03-2021 15:25:00 10.8 C 62 % 3.82 C
187 12-03-2021 15:30:00 10.9 C 61 % 3.69 C
188 12-03-2021 15:35:00 10.9 C 62 % 3.92 C
189 12-03-2021 15:40:00 10.9 C 61 % 3.69 C
190 12-03-2021 15:45:00 10.7 C 62 % 3.73 C
191 12-03-2021 15:50:00 10.7 C 62 % 3.73 C
192 12-03-2021 15:55:00 10.7 C 63 % 3.95 C
193 12-03-2021 16:00:00 10.7 C 62 % 3.73 C
194 12-03-2021 16:05:00 10.7 C 62 % 3.73 C
195 12-03-2021 16:10:00 10.8 C 62 % 3.82 C
196 12-03-2021 16:15:00 10.8 C 62 % 3.82 C
197 12-03-2021 16:20:00 11.1 C 62 % 4.11 C
198 12-03-2021 16:25:00 11.2 C 62 % 4.2 C
199 12-03-2021 16:30:00 11.2 C 61 % 3.97 C
200 12-03-2021 16:35:00 11.3 C 61 % 4.06 C
Sensor: Nr:Datum:Temp:Feuchte:Taupunkt:
Aussen-T/F 201 12-03-2021 16:40:00 11.6 C 59 % 3.87 C
202 12-03-2021 16:45:00 11.5 C 58 % 3.54 C
203 12-03-2021 16:50:00 11.3 C 60 % 3.83 C
204 12-03-2021 16:55:00 11.1 C 59 % 3.4 C
205 12-03-2021 17:00:00 11 C 60 % 3.55 C
206 12-03-2021 17:05:00 10.8 C 61 % 3.59 C
207 12-03-2021 17:10:00 10.7 C 61 % 3.5 C
208 12-03-2021 17:15:00 10.6 C 62 % 3.63 C
209 12-03-2021 17:20:00 10.4 C 63 % 3.67 C
210 12-03-2021 17:25:00 10.3 C 64 % 3.8 C
211 12-03-2021 17:30:00 10.2 C 65 % 3.92 C
212 12-03-2021 17:35:00 10.1 C 65 % 3.83 C
213 12-03-2021 17:40:00 9.9 C 66 % 3.86 C
214 12-03-2021 17:45:00 9.9 C 66 % 3.86 C
215 12-03-2021 17:50:00 9.9 C 68 % 4.28 C
216 12-03-2021 17:55:00 9.8 C 68 % 4.18 C
217 12-03-2021 18:00:00 9.7 C 68 % 4.09 C
218 12-03-2021 18:05:00 9.7 C 69 % 4.3 C
219 12-03-2021 18:10:00 9.7 C 69 % 4.3 C
220 12-03-2021 18:15:00 9.7 C 69 % 4.3 C
221 12-03-2021 18:20:00 9.7 C 68 % 4.09 C
222 12-03-2021 18:25:00 9.7 C 69 % 4.3 C
223 12-03-2021 18:30:00 9.7 C 69 % 4.3 C
224 12-03-2021 18:35:00 9.7 C 72 % 4.9 C
225 12-03-2021 18:40:00 9.3 C 75 % 5.1 C
Sensor: Nr:Datum:Temp:Feuchte:Taupunkt:
Aussen-T/F 226 12-03-2021 18:45:00 8.8 C 78 % 5.18 C
227 12-03-2021 18:50:00 8.4 C 81 % 5.33 C
228 12-03-2021 18:55:00 8.1 C 82 % 5.22 C
229 12-03-2021 19:00:00 8 C 82 % 5.12 C
230 12-03-2021 19:05:00 7.8 C 83 % 5.1 C
231 12-03-2021 19:10:00 7.8 C 84 % 5.27 C
232 12-03-2021 19:15:00 7.7 C 84 % 5.17 C
233 12-03-2021 19:20:00 7.7 C 84 % 5.17 C
234 12-03-2021 19:25:00 7.6 C 84 % 5.07 C
235 12-03-2021 19:30:00 7.5 C 84 % 4.98 C
236 12-03-2021 19:35:00 7.4 C 84 % 4.88 C
237 12-03-2021 19:40:00 7.3 C 84 % 4.78 C
238 12-03-2021 19:45:00 7.3 C 84 % 4.78 C
239 12-03-2021 19:50:00 7.3 C 84 % 4.78 C
240 12-03-2021 19:55:00 7.3 C 84 % 4.78 C
241 12-03-2021 20:00:00 7.2 C 84 % 4.68 C
242 12-03-2021 20:05:00 7.2 C 83 % 4.51 C
243 12-03-2021 20:10:00 7.2 C 83 % 4.51 C
244 12-03-2021 20:15:00 7.2 C 83 % 4.51 C
245 12-03-2021 20:20:00 7.2 C 83 % 4.51 C
246 12-03-2021 20:25:00 7.1 C 82 % 4.24 C
247 12-03-2021 20:30:00 7.1 C 82 % 4.24 C
248 12-03-2021 20:35:00 7 C 82 % 4.14 C
249 12-03-2021 20:40:00 6.9 C 82 % 4.05 C
250 12-03-2021 20:45:00 6.9 C 82 % 4.05 C
Sensor: Nr:Datum:Temp:Feuchte:Taupunkt:
Aussen-T/F 251 12-03-2021 20:50:00 6.8 C 82 % 3.95 C
252 12-03-2021 20:55:00 6.8 C 82 % 3.95 C
253 12-03-2021 21:00:00 6.7 C 82 % 3.85 C
254 12-03-2021 21:05:00 6.7 C 82 % 3.85 C
255 12-03-2021 21:10:00 6.6 C 82 % 3.75 C
256 12-03-2021 21:15:00 6.6 C 83 % 3.92 C
257 12-03-2021 21:20:00 6.6 C 82 % 3.75 C
258 12-03-2021 21:25:00 6.6 C 82 % 3.75 C
259 12-03-2021 21:30:00 6.7 C 82 % 3.85 C
260 12-03-2021 21:35:00 6.6 C 83 % 3.92 C
261 12-03-2021 21:40:00 6.7 C 83 % 4.02 C
262 12-03-2021 21:45:00 6.6 C 83 % 3.92 C
263 12-03-2021 21:50:00 6.6 C 83 % 3.92 C
264 12-03-2021 21:55:00 6.6 C 83 % 3.92 C
265 12-03-2021 22:00:00 6.6 C 83 % 3.92 C
266 12-03-2021 22:05:00 6.6 C 83 % 3.92 C
267 12-03-2021 22:10:00 6.6 C 83 % 3.92 C
268 12-03-2021 22:15:00 6.6 C 83 % 3.92 C
269 12-03-2021 22:20:00 6.6 C 83 % 3.92 C
270 12-03-2021 22:25:00 6.6 C 84 % 4.1 C
271 12-03-2021 22:30:00 6.6 C 84 % 4.1 C
272 12-03-2021 22:35:00 6.6 C 84 % 4.1 C
273 12-03-2021 22:40:00 6.6 C 84 % 4.1 C
274 12-03-2021 22:45:00 6.6 C 84 % 4.1 C
275 12-03-2021 22:50:00 6.6 C 84 % 4.1 C
Sensor: Nr:Datum:Temp:Feuchte:Taupunkt:
Aussen-T/F 276 12-03-2021 22:55:00 6.5 C 84 % 4 C
277 12-03-2021 23:00:00 6.4 C 84 % 3.9 C
278 12-03-2021 23:05:00 6.4 C 85 % 4.07 C
279 12-03-2021 23:10:00 6.4 C 85 % 4.07 C
280 12-03-2021 23:15:00 6.3 C 85 % 3.97 C
281 12-03-2021 23:20:00 6.3 C 85 % 3.97 C
282 12-03-2021 23:25:00 6.3 C 86 % 4.14 C
283 12-03-2021 23:30:00 6.4 C 86 % 4.23 C
284 12-03-2021 23:35:00 6.4 C 86 % 4.23 C
285 12-03-2021 23:40:00 6.5 C 86 % 4.33 C
286 12-03-2021 23:45:00 6.5 C 85 % 4.17 C
287 12-03-2021 23:50:00 6.6 C 85 % 4.26 C
288 12-03-2021 23:55:00 6.6 C 85 % 4.26 C

Legende:
   Min
   Max


Maximal/Minimal-Werte vom 12.03.2021 - 12.03.2021

Sensor Min Max Avg
Temp
(Aussen-T/F)
4.9 °C
12-03-2021  00:45:00
11.6 °C
12-03-2021  16:40:00
7.44 °C
Feuchte
(Aussen-T/F)
58 %
12-03-2021  16:45:00
92 %
12-03-2021  01:00:00
78.49 %
Taupunkt
(Aussen-T/F)
2.43 C
12-03-2021  04:20:00
5.36 C
12-03-2021  12:15:00
3.83 C

Die Daten stammen von einer Davis Vantage Pro 2 Wetter-Station und werden unter Linux mit der Software wview2wettercgi und aufbereitet. Alle Angaben erfolgen ohne Gewähr für ihre Vollständigkeit oder Richtigkeit.
Kontakt: Rainer Krienke krienke@uni-koblenz.de . Meine Webseiten an der Uni Koblenz oder privat.
Version: $Revision: 0.78 $